Location: *
(46.3500°N, 10.9000°E)
Time: 09:19:50
(UTC+00:00)

Vanguard 2 - Pass Details

Date: 01 December 2021
Orbit: 554 x 2935 km, 32.9° (Epoch: 27 January)

Event Time Altitude Azimuth Distance (km) Brightness Sun altitude
Rises 19:32:03 0° 261° (W) 4,866 12.4 -40.7°
Reaches altitude 10° 19:36:51 10° 241° (WSW) 4,335 11.8 -41.5°
Maximum altitude 19:43:08 16° 210° (SSW) 4,386 11.4 -42.6°
Drops below altitude 10° 19:50:40 10° 180° (S) 5,330 11.6 -43.8°
Enters shadow 19:52:56 - 173° (S) 5,714 11.8 -44.2°
